ARIANE 5 R/B, 41309

Orbit data source: Space-Track

ARIANE 5 R/B, 41309 is space debris in HEO originally from a launch on Wed, 27 Jan 2016 UTC launched from the French Guiana (FRGUI). Debris objects in space refer to the collection of defunct objects orbiting the Earth. Examples of debris include non-operational satellites, rocket bodies, and fragments generated from explosions, collisions, or faulty payload assembly.

Loading next visibility...
Identifier
41309, 2016-004B
Orbit
HEO
Last TLE update
18 hours ago
Origin
Manufacturer
Airbus Safran
Mission
Spacecraft
Bus & Motor
ESC-A, Unknown motor
Mass
~5,000 kg wet, ~5,000 kg dry
Launch date (UTC)
2016-01-27 (9 years ago)
Launch vehicle
Unknown
Launch site
French Guiana (FRGUI)
Object type
Payload
Rocket body
Debris
Shape & HBR
Cyl + 1 Nozzle, 7 m
Radar Cross Section
41.627 m², Large (>1 m²)

Expand to show TLE details & history

TLE from 18 hours ago
0 ARIANE 5 R/B
1 41309U 16004B   25183.10396729  .00002382  00000-0  10766-2 0  9991
2 41309   0.5960 259.6035 7191167 231.3234 317.8479  2.38040855 80214
Epoch: 2025-07-02T02:29Z
TLE epoch observation values (Epoch: 2025-07-02T02:29:42.773Z)
Latitude
0.59478°
Longitude
42.18171°
Altitude
15,212.624 km
Speed
4.483 km/s
True Right ascension
23h 59m 59s
True Declination
0° 35' 37"
Sunlit
Object was in daylight at epoch
Visualization orbit readout
Latitude
0.54496°
Longitude
8.0671°
Altitude
31,203.716 km
Speed
2.095 km/s
Apparent Right ascension
21h 33m 06s
Apparent Declination
-5° 02' 15"
Sunlit
Object is in daylight
Visualization observer readout
Local Sidereal Time
08:11:24
Azimuth
326.817° NNW
Elevation
-50.563°
Doppler factor
1
Orbital elements
Apogee altitude
34,363.768 km
Perigee altitude
278.607 km
Semi-major axis
23,699.325 km
Eccentricity
0.71912
Inclination
0.596°
RAAN
259.6035°
Arg. of periapsis
231.3234°
True anomaly
Unknown
Mean anomaly
317.8479°
Eccentric anomaly
Unknown
Mean motion
0.59489 °/min
Orbital period
605.15 mins
BSTAR
0.0010766
Loading maneuver chart data...
Loading SW <> Apogee altitude chart data...
Loading historical data...
Loading historical data...
Loading historical data...
Loading historical data...
Loading historical data...
Loading historical data...
Loading historical data...
Other satellites on launch #4 in the year 2016 (2016-01-27 UTC)

ARIANE 5 R/B Visibility forecast

Observer location: undefined°, undefined°

Span
Click to sort rows by Start time (UTC) header in descending order
Start Az.
Max El. time (UTC)
Max El. Az.
Max El.
End time (UTC)
End Az.
264 mins2025-07-03 04:22:21.867Z106.196° ESE2025-07-03 07:20:21.867Z119.298° SE19.646°2025-07-03 08:46:21.867Z115.003° SE
|